Weather History for Port Angeles, WA

Change the Weather History Date:

Thursday, January 2, 2014

  Actual Average Record
Temperature  
Mean Temperature 44 °F -  
Max Temperature 46 °F 44 °F 57 °F (2002)
Min Temperature 39 °F 32 °F 13 °F (1950)
Degree Days  
Heating Degree Days 22    
Moisture  
Dew Point 41 °F    
Average Humidity 91    
Maximum Humidity 96    
Minimum Humidity 68    
Precipitation  
Precipitation 0.48 in - - ()
Sea Level Pressure  
Sea Level Pressure 30.03 in    
Wind  
Wind Speed 5 mph (West)    
Max Wind Speed 17 mph    
Max Gust Speed 24 mph    
Visibility 9 miles    
Events Rain    
Averages and records for this station are not official NWS values.
T = Trace of Precipitation, MM = Missing Value Source: NWS Daily Summary

Daily Weather History Graph

Daily Weather History Graph

Search for Another Location

Airport:

Trip Planner

Search our weather history database for the weather conditions in past years. The results will help you decide how hot, cold, wet, or windy it might be!

Date:

Astronomy

Jan. 02, 2014 Rise Set
Actual Time 8:04 AM PST 4:32 PM PST
Civil Twilight 7:28 AM PST 5:08 PM PST
Nautical Twilight 6:48 AM PST 5:47 PM PST
Astronomical Twilight 6:10 AM PST 6:25 PM PST
Moon 8:40 AM PST (1/2) 6:47 PM PST (1/2)
Length of Visible Light 9h 40m
Length of Day
8h 27m
Waxing Crescent, 3% of the Moon is Illuminated
Jan 2
Waxing Crescent
Jan 7
First Quarter
Jan 15
Full
Jan 23
Last Quarter
Jan 30
New

Hourly Weather History & Observations

Time (PST) Temp. Windchill Dew Point Humidity Pressure Visibility Wind Dir Wind Speed Gust Speed Precip Events Conditions
12:11 AM 42.1 °F 40.2 °F 39.9 °F 92% 30.24 in 7.0 mi SE 3.5 mph - N/A   Mostly Cloudy
12:53 AM 42.1 °F - 39.9 °F 92% 30.24 in 9.0 mi Calm Calm - N/A   Overcast
1:53 AM 42.1 °F 39.2 °F 39.9 °F 92% 30.23 in 10.0 mi ESE 4.6 mph - 0.00 in Rain Light Rain
2:32 AM 42.1 °F 39.2 °F 39.9 °F 92% 30.21 in 10.0 mi East 4.6 mph - 0.01 in Rain Light Rain
2:51 AM 42.8 °F 38.6 °F 39.2 °F 87% 30.20 in 10.0 mi SE 6.9 mph - 0.01 in   Overcast
2:53 AM 42.1 °F 37.7 °F 39.9 °F 92% 30.21 in 10.0 mi SE 6.9 mph - 0.01 in   Overcast
3:14 AM 43.0 °F - 41.0 °F 93% 30.20 in 10.0 mi Calm Calm - N/A   Overcast
3:53 AM 42.1 °F - 39.9 °F 92% 30.20 in 10.0 mi Calm Calm - 0.01 in Rain Light Rain
4:01 AM 42.1 °F - 41.0 °F 96% 30.19 in 10.0 mi Calm Calm - 0.00 in Rain Light Rain
4:53 AM 42.1 °F 40.2 °F 39.9 °F 92% 30.17 in 8.0 mi East 3.5 mph - 0.00 in Rain Light Rain
5:53 AM 43.0 °F - 41.0 °F 93% 30.16 in 9.0 mi Calm Calm - 0.00 in Rain Light Rain
6:13 AM 42.1 °F 40.2 °F 39.9 °F 92% 30.14 in 8.0 mi SW 3.5 mph - 0.00 in   Overcast
6:53 AM 42.1 °F 40.2 °F 39.9 °F 92% 30.12 in 8.0 mi SE 3.5 mph - 0.00 in   Overcast
7:24 AM 42.1 °F 40.2 °F 39.9 °F 92% 30.09 in 5.0 mi NW 3.5 mph - N/A   Overcast
7:53 AM 42.1 °F 40.2 °F 41.0 °F 96% 30.09 in 7.0 mi Variable 3.5 mph - N/A   Overcast
8:02 AM 42.1 °F 38.4 °F 39.9 °F 92% 30.08 in 8.0 mi West 5.8 mph - N/A   Overcast
8:53 AM 43.0 °F 41.3 °F 41.0 °F 93% 30.08 in 7.0 mi West 3.5 mph - N/A   Overcast
9:38 AM 44.1 °F 40.1 °F 41.0 °F 89% 30.05 in 9.0 mi West 6.9 mph - N/A   Overcast
9:53 AM 44.1 °F 39.5 °F 41.0 °F 89% 30.06 in 10.0 mi West 8.1 mph - N/A   Overcast
10:12 AM 44.1 °F 39.5 °F 42.1 °F 93% 30.05 in 10.0 mi West 8.1 mph - N/A   Overcast
10:53 AM 44.1 °F 42.5 °F 42.1 °F 93% 30.04 in 10.0 mi WNW 3.5 mph - 0.02 in Rain Light Rain
11:53 AM 44.1 °F 42.5 °F 43.0 °F 96% 30.01 in 10.0 mi NW 3.5 mph - 0.00 in   Overcast
12:53 PM 44.1 °F - 42.1 °F 93% 29.98 in 10.0 mi Calm Calm - 0.03 in Rain Light Rain
1:53 PM 45.0 °F - 43.0 °F 93% 29.94 in 10.0 mi Calm Calm - 0.03 in Rain Light Rain
2:15 PM 45.0 °F - 43.0 °F 93% 29.92 in 8.0 mi Calm Calm - 0.01 in Rain Light Rain
2:53 PM 45.0 °F 41.8 °F 43.0 °F 93% 29.91 in 10.0 mi SE 5.8 mph - 0.02 in Rain Light Rain
3:05 PM 45.0 °F - 43.0 °F 93% 29.91 in 10.0 mi Calm Calm - 0.00 in Rain Light Rain
3:35 PM 45.0 °F 43.5 °F 43.0 °F 93% 29.92 in 9.0 mi SW 3.5 mph - 0.01 in Rain Light Rain
3:53 PM 45.0 °F 42.6 °F 43.0 °F 93% 29.92 in 6.0 mi SSW 4.6 mph - 0.04 in Rain Light Rain
4:03 PM 45.0 °F 43.5 °F 43.0 °F 93% 29.91 in 10.0 mi South 3.5 mph - 0.00 in Rain Light Rain
4:53 PM 45.0 °F - 43.0 °F 93% 29.90 in 10.0 mi Calm Calm - 0.05 in Rain Light Rain
5:51 PM 44.6 °F 41.4 °F 42.8 °F 93% 29.92 in 5.0 mi West 5.8 mph - 0.08 in Rain Light Rain
5:53 PM 45.0 °F 41.2 °F 43.0 °F 93% 29.94 in 5.0 mi West 6.9 mph - 0.08 in Rain Light Rain
6:04 PM 45.0 °F 41.2 °F 43.0 °F 93% 29.93 in 4.0 mi West 6.9 mph - 0.03 in Rain Light Rain
6:22 PM 46.0 °F 39.0 °F 43.0 °F 89% 29.93 in 9.0 mi WNW 17.3 mph 24.2 mph 0.06 in Rain Light Rain
6:53 PM 46.9 °F - 42.1 °F 83% 29.93 in 10.0 mi West 12.7 mph - 0.09 in Rain Light Rain
7:53 PM 46.9 °F - 41.0 °F 80% 29.93 in 10.0 mi West 11.5 mph 21.9 mph 0.08 in Rain Light Rain
8:13 PM 45.0 °F 38.5 °F 42.1 °F 90% 29.92 in 10.0 mi NW 13.8 mph - 0.01 in Rain Light Rain
8:18 PM 45.0 °F 39.3 °F 43.0 °F 93% 29.92 in 10.0 mi WNW 11.5 mph - 0.02 in Rain Light Rain
8:27 PM 45.0 °F 38.5 °F 43.0 °F 93% 29.92 in 10.0 mi WNW 13.8 mph 21.9 mph 0.02 in Rain Light Rain
8:41 PM 45.0 °F 38.2 °F 42.1 °F 90% 29.92 in 10.0 mi WNW 15.0 mph 21.9 mph 0.02 in   Overcast
8:53 PM 45.0 °F 38.2 °F 42.1 °F 90% 29.93 in 10.0 mi WNW 15.0 mph - 0.02 in Rain Light Rain
9:53 PM 43.0 °F 36.0 °F 39.0 °F 86% 29.96 in 10.0 mi WNW 13.8 mph - 0.00 in   Clear
10:53 PM 41.0 °F 35.2 °F 33.1 °F 73% 29.98 in 10.0 mi WNW 9.2 mph - N/A   Clear
11:53 PM 39.9 °F 33.4 °F 30.0 °F 68% 30.02 in 10.0 mi NW 10.4 mph - N/A   Clear